Location: Fort Wayne
(41.1310°N, 85.1290°W)
Time: 07:51:20
(UTC-04:00)

Daily predictions for brighter satellites

Satellite Brightness Start Highest point End
(mag) Time Altitude Azimuth Time Altitude Azimuth Time Altitude Azimuth
Cosmos 1606 Rocket 3.8 21:24:57 10° N 21:29:21 57° E 21:33:41 10° SSE
Meteor 1-19 Rocket 4.3 21:26:24 10° S 21:31:54 58° E 21:37:24 10° NNE
CZ-4 DEB 3.5 21:32:16 10° S 21:35:26 55° W 21:38:38 10° NNW
H-2A R/B 2.3 21:32:37 10° SSE 21:36:44 55° ENE 21:40:58 10° N
Meteor 2-4 Rocket 4.1 21:31:59 10° SSE 21:37:32 48° E 21:43:13 10° NNE
Cosmos 1331 Rocket 4.3 21:33:24 10° N 21:38:32 53° ENE 21:43:34 10° SE
CZ-2C R/B 0.3 21:36:59 10° SSE 21:39:17 84° ENE 21:41:37 10° N
Cosmos 2333 Rocket 2.9 21:36:02 10° SW 21:41:36 60° WNW 21:47:12 10° NNE
Resurs 01 Rocket 4.5 21:39:34 10° SW 21:42:06 15° W 21:44:37 10° WNW
SPOT 5 3.6 21:38:43 10° SE 21:42:39 31° ENE 21:46:29 10° N
Cosmos 2297 3.8 21:39:55 10° NNW 21:45:38 70° ENE 21:51:20 10° SSE
Cosmos 2098 Rocket 3.8 21:47:16 10° NNW 21:50:21 41° W 21:54:01 10° SSW
H-2A R/B 4.0 21:47:46 10° S 21:51:32 43° W 21:55:20 10° NNW
CZ-4 SHROUD 4.1 21:49:26 11° SE 21:52:06 34° ENE 21:55:00 10° N
APEX 4.3 21:49:26 10° N 21:53:05 37° ENE 21:57:09 12° SE
Lacrosse 5 3.9 21:50:30 10° W 21:55:03 32° NNW 21:59:37 10° NNE
USA 186 3.8 21:54:30 10° SSW 21:56:57 23° W 21:59:18 10° NW
ATLAS CENTAUR R/B 2.5 21:52:25 10° SW 21:57:19 61° NW 22:02:21 10° NNE
Cosmos 158 Rocket 4.4 21:52:48 10° SSW 21:57:49 66° WNW 22:03:00 10° NNE
SeaSat 1 2.6 21:53:10 11° SE 21:57:52 61° ENE 22:02:44 10° NNW
CZ-4B R/B 4.3 21:55:24 10° NE 21:59:51 30° E 22:04:21 10° SSE
Cosmos 2228 3.2 21:59:41 10° N 22:04:03 57° E 22:07:57 12° SSE
Cosmos 2251 Rocket 3.9 21:59:03 10° SSW 22:04:20 71° WNW 22:09:42 10° NNE
Cosmos 1892 Rocket 3.9 22:01:21 10° SSW 22:05:45 71° W 22:10:13 10° N
Cosmos 1025 Rocket 4.1 22:01:33 10° SSW 22:05:48 48° W 22:10:04 10° N
BREEZE-M DEB (TANK) 1.8 22:09:28 10° WNW 22:12:07 63° SW 22:13:12 24° SE
Tsikada Rocket 4.3 22:07:47 10° SSE 22:13:55 50° E 22:20:04 10° NNE
ALOS 4.2 22:10:54 10° SSW 22:14:50 27° W 22:18:49 10° NW
Atlas Centaur 2 3.9 22:08:40 10° SSW 22:14:59 26° SSE 22:20:37 13° ESE
YAOGAN 6 3.6 22:13:00 18° ESE 22:15:05 32° ENE 22:18:26 10° N
Terra 3.9 22:13:24 10° E 22:15:40 13° ENE 22:17:57 10° NNE
Nimbus 7 Rocket 4.4 22:09:47 10° NNE 22:15:48 86° ESE 22:21:43 10° SSW
Cosmos 1513 Rocket 4.5 22:10:50 10° N 22:17:10 76° E 22:23:02 12° SSE
COSMOS 2455 3.6 22:13:36 10° SSE 22:18:40 30° ESE 22:23:46 10° NE
Cosmos 2237 Rocket 4.1 22:15:50 10° WSW 22:20:52 33° WNW 22:25:56 10° N
ATLAS 3B R/B 4.1 22:18:09 16° SE 22:21:03 20° ESE 22:26:10 10° ENE
Meteor 1-15 Rocket 4.2 22:15:54 10° N 22:21:31 89° E 22:26:45 12° S
Envisat 3.0 22:16:48 12° SSE 22:21:35 88° WSW 22:26:42 10° NNW
MetOp-A 4.2 22:17:21 16° SSE 22:21:40 64° ENE 22:26:58 10° N
ERS-1 Rocket 4.0 22:18:34 10° S 22:23:19 43° W 22:28:06 10° NNW
Cosmos 1939 Rocket 3.4 22:19:34 10° S 22:23:40 61° W 22:27:48 10° NNW
Cosmos 2285 Rocket 4.1 22:17:36 10° NNW 22:23:56 76° WSW 22:29:40 13° S
GRACE-1 3.8 22:23:55 10° N 22:26:47 68° E 22:28:09 27° SSE
GRACE-2 3.8 22:24:22 10° N 22:27:14 69° E 22:28:35 27° SSE
Cosmos 2278 Rocket 4.0 22:23:08 10° NW 22:27:49 27° WSW 22:32:30 10° SSW
PSLV R/B 3.5 22:30:19 20° S 22:32:17 60° W 22:35:22 10° NNW
USA 234 3.3 22:27:51 19° SE 22:32:53 89° NE 22:39:30 10° NW
Cosmos 1464 Rocket 4.5 22:32:38 10° NNW 22:38:39 59° W 22:44:39 10° S
Cosmos 2058 Rocket 4.5 22:36:06 10° NNW 22:40:06 35° W 22:44:03 10° SSW
Lacrosse 5 rocket 3.2 22:37:17 10° W 22:40:50 32° NW 22:44:33 10° NNE
Cosmos 2369 Rocket 3.4 22:38:15 10° N 22:43:10 29° NE 22:46:13 18° ESE
Cosmos 1666 3.7 22:42:36 10° NNW 22:46:19 43° W 22:49:18 15° SSW
SL-16 R/B 3.4 22:41:38 10° SW 22:47:01 44° WNW 22:52:25 10° NNE
Abrixas rocket 2.2 22:44:31 10° WNW 22:47:56 74° SSW 22:48:52 44° SE
Aureole 2 Rocket 3.6 22:45:23 10° SW 22:49:17 49° WNW 22:52:51 10° N
Cosmos 1602 Rocket 3.9 22:45:06 10° SSW 22:49:33 66° W 22:54:01 10° N
ARGOS 3.2 22:48:12 26° SSE 22:51:16 67° ENE 22:56:40 10° N
H-2A R/B 2.9 22:50:29 24° ESE 22:52:27 32° ENE 22:56:53 10° N
NOAA 11 4.2 22:52:09 28° SSE 22:55:02 66° ENE 23:00:25 10° N
Cosmos 1825 Rocket 4.0 22:54:02 34° SE 22:55:21 44° E 22:59:35 10° NNE
Cosmos 1816 Rocket 4.5 22:50:06 15° S 22:55:34 82° E 23:01:56 10° N
Cosmos 1634 Rocket 4.1 22:53:08 10° N 22:59:12 57° E 23:02:13 30° SE
Cosmos 1238 4.2 22:58:10 40° SSW 22:59:13 83° W 23:02:16 10° N
Cosmos 1812 Rocket 3.6 22:55:40 10° NNW 23:00:03 75° W 23:02:13 29° S
SPOT 1/Viking Rocket 3.6 22:57:45 26° S 23:00:44 80° WSW 23:05:56 10° NNW
Cosmos 1992 Rocket 4.3 22:56:18 10° N 23:01:26 53° ENE 23:03:30 33° SE
USA 245 4.4 22:57:48 23° S 23:01:55 80° WSW 23:07:27 10° NNW
Cosmos 1461 2.9 22:58:01 10° NW 23:02:19 71° WSW 23:03:39 41° S
NAVSTAR 52 R/B(PAM-D 4.3 22:59:08 10° W 23:02:55 55° SSW 23:02:55 55° SSW
Cosmos 1346 Rocket 3.3 23:10:08 38° E 23:10:08 38° E 23:13:44 10° NNE
Cosmos 1066 Rocket 4.2 23:11:09 32° S 23:13:50 67° E 23:19:34 10° NNE
CZ-4 R/B 4.1 23:10:03 10° N 23:15:01 76° WNW 23:18:29 20° SSW
Cosmos 1515 3.8 23:13:48 40° SSW 23:15:06 76° W 23:18:59 10° N
DEBRIS 3.9 23:12:19 10° WNW 23:15:01 22° WSW 23:15:01 22° WSW
Cosmos 1603 4.0 23:09:58 10° SSW 23:15:33 65° WNW 23:21:09 10° NNE
Cosmos 1190 Rocket 4.3 23:14:26 39° SE 23:15:47 48° ESE 23:20:52 10° NNE
Geosat 3.9 23:10:52 10° NNE 23:15:56 89° ESE 23:19:56 16° SSW
Cosmos 2279 Rocket 4.2 23:20:04 10° N 23:26:11 54° E 23:28:18 38° SE
Meteor 1-21 4.5 23:26:42 41° SE 23:28:15 52° E 23:33:52 10° NNE
Spot 4 4.1 23:27:26 44° ESE 23:28:27 53° ENE 23:33:06 10° N
Cosmos 1842 4.4 23:32:29 31° ENE 23:32:29 31° ENE 23:35:21 10° NNE
Landsat 7 3.9 23:35:43 47° S 23:37:00 71° WSW 23:41:46 10° NNW
Cosmos 1953 Rocket 3.5 23:38:28 57° SSW 23:39:20 82° W 23:43:47 10° N
Cosmos 1943 3.1 23:39:28 33° SSW 23:42:08 87° ESE 23:47:51 10° NNE
Cosmos 1766 3.2 23:46:14 10° N 23:50:05 79° NE 23:50:05 79° NE
Terra 1.9 23:52:00 58° SSW 23:52:48 71° WSW 23:57:34 10° NNW
Spot 2 4.4 23:49:02 10° N 23:53:46 78° WNW 23:54:59 51° SSW
